Regional Weather Roundup
Issued by NWS

Home | Current Version | Previous Version | Text Only | Print | Product List | Glossary On
Versions: 1 2 3 4 5 6 7 8 9 10 11 12 13 14 15 16 17 18 19 20 21 22 23 24 25 26
000
ASCA42 TJSJ 280010
RWRPR
PUERTO RICO/U.S. VIRGIN ISLANDS HOURLY WEATHER ROUNDUP
NATIONAL WEATHER SERVICE SAN JUAN PR
800 PM AST THU JUL 27 2017

PRZ001>002-007>008-010-280100-
PUERTO RICO

CITY           SKY/WX    TMP DP  RH WIND       PRES   REMARKS
SAN JUAN LMM   PTCLDY    82  77  83 E9        29.96R HX  91
AGUADILLA      CLEAR     81  75  83 E7        29.97R
CEIBA          PTCLDY    82  77  83 E6        29.98R HX  91
$$

VIZ001>002-280100-
U.S. VIRGIN ISLANDS

CITY           SKY/WX    TMP DP  RH WIND       PRES   REMARKS
CHARLOTTE AMA  CLEAR     82  75  78 E5        29.96R
CHRISTIANSTED  CLEAR     82  75  78 NE3       29.97R
$$

HOURLY WEATHER ROUNDUP FOR THE NEWS MEDIA

CITY           SKY/WX    TMP DP  RH WIND       PRES   REMARKS
ORLANDO        CLOUDY    80  72  76 NE6       29.97R
NEW YORK       CLOUDY    75  72  90 S15       29.90S
NEWARK         CLOUDY    77  68  73 E3        29.89S
CHICAGO        MOSUNNY   77  54  44 NE16G26   29.94S
HARTFORD       CLOUDY    66  64  93 SW6       29.89F
BOSTON         CLOUDY    70  65  84 SW12      29.86F
DALLAS         PTSUNNY   98  64  32 S14       29.88F HX 100
PHILADELPHIA   MOCLDY    78  71  79 SE9       29.88F
LOS ANGELES    PTSUNNY   73  64  73 W16       29.88F
WASHINGTON DC  CLOUDY    81  73  76 SE6       29.87S THUNDER



USA.gov is the U.S. government's official web portal to all federal, state and local government web resources and services.